[[{"header":{"parameterUnit":"m.s-1","parameterCategory":2,"la1":30.2991,"la2":30.254,"lo1":-89.0895,"lo2":-89.0444,"dy":0.0017,"dx":0.0017,"nx":28,"ny":28,"refTime":"2024-10-12T09:00:00:Z","depth":"0","parameterNumber":2,"parameterNumberName":"U-component_of_CURRENTS"},"data":[0,0,0,0,0,0,0,0,0,0,0,0,0,0,0,0,0,0,0,0,0,0,0,0,0,0,0,0,0,0,0,0,0,0,0,0,0,0,0,0,0,0,0,0,0,0,0,0,0,0,0,0,0,0,0,0,0,0,0.3349,0.3348,0,0.3312,0.3312,0.3311,0.3333,0.3334,0.3334,0.3335,0.3362,0.3362,0.3362,0,0,0,0,0,0,0,0,0,0,0,0,0,0.3485,0.3483,0.3349,0.3348,0.3347,0.3312,0.3312,0.3311,0.3333,0.3334,0.3335,0.3335,0.3362,0.3362,0.3362,0,0,0,0,0,0,0,0,0,0,0,0,0,0.3439,0.3482,0.3349,0.3351,0.335,0.3312,0.3312,0.3311,0.3333,0.3334,0.3335,0.3336,0.3362,0.3362,0.3362,0.3342,0,0,0.3362,0.3362,0,0,0,0,0,0,0,0,0.3441,0.3434,0.3351,0.335,0.335,0.3324,0.3369,0.3323,0.3333,0.3344,0.3335,0.3336,0.3352,0.3353,0.3348,0.3344,0.3345,0.3362,0.3362,0.3362,0.3362,0,0,0,0,0,0,0,0.3445,0.3436,0.3338,0.335,0.3349,0.3369,0.3363,0.3361,0.3347,0.3343,0.3343,0.3332,0.3352,0.3348,0.3349,0.3345,0.3362,0.3362,0.3362,0.3362,0.3329,0.3328,0,0,0,0,0,0,0.3436,0.3439,0.334,0.3337,0.3394,0.3365,0.3359,0.3335,0.3346,0.3346,0.3331,0.3333,0.3347,0.3349,0.335,0.3313,0.3362,0.3362,0.3363,0.333,0.3329,0.3328,0,0,0,0,0,0,0.3439,0.3427,0.3341,0.3385,0.3375,0.3361,0.3334,0.3334,0.3326,0.3335,0.3339,0.3323,0.3348,0.335,0.3331,0.3315,0.3363,0.3363,0.3331,0.333,0.3328,0.3248,0,0,0,0,0,0,0.3443,0.3428,0.3413,0.3384,0.3372,0.331,0.3333,0.3332,0.3315,0.3318,0.3329,0.3333,0.3349,0.333,0.3331,0.3316,0.3363,0.3332,0.333,0.3329,0.3251,0.3244,0.3237,0,0,0,0,0,0.3448,0.3406,0.3412,0.34,0.3349,0.3308,0.3304,0.3302,0.3314,0.3302,0.3303,0.3332,0.332,0.3328,0.333,0.3315,0.3333,0.3331,0.3329,0.3255,0.3245,0.3237,0,0,0,0,0,0,0.344,0.3403,0.3409,0.3355,0.3335,0.331,0.3289,0.3294,0.3285,0.3287,0.3308,0.331,0.3296,0.3311,0.3319,0.3301,0.3336,0.3334,0.328,0.3271,0.3264,0.3256,0.3363,0,0,0,0,0,0.3434,0.3403,0.3375,0.3332,0.3319,0.3307,0.3292,0.329,0.3274,0.3272,0.3275,0.3282,0.3287,0.3282,0.329,0.3265,0.3295,0.3261,0.3254,0.3247,0.3242,0.3285,0.3281,0.3321,0.3321,0.3321,0,0,0.3414,0.3393,0.3372,0.3331,0.3314,0.3272,0.3301,0.3265,0.3233,0.3275,0.3232,0.3257,0.3277,0.3256,0.3251,0.3264,0.3245,0.3244,0.3239,0.3238,0.3282,0.3278,0.3275,0.3319,0.3319,0.332,0,0,0.3355,0.3343,0.33,0.3279,0.3249,0.3242,0.3229,0.3202,0.3196,0.3159,0.319,0.3197,0.3186,0.32,0.3207,0.3162,0.3211,0.3171,0.3118,0.3158,0.3156,0.3154,0.3159,0.3159,0.316,0.316,0.316,0,0.3337,0.3277,0.3281,0.3233,0.3206,0.3222,0.317,0.3156,0.3127,0.3121,0.3134,0.3141,0.316,0.315,0.3135,0.3145,0.3169,0.3148,0.3149,0.3148,0.3148,0.3154,0.3155,0.3156,0.3156,0.3157,0.3157,0,0.3244,0.3202,0.3169,0.3121,0.3099,0.3053,0.3039,0.3022,0.3024,0.3022,0.3016,0.3042,0.3054,0.3062,0.308,0.3084,0.3101,0.3142,0.3171,0.3139,0.3148,0.3149,0.315,0.3151,0.3152,0.3153,0,0,0.3172,0.3119,0.3105,0.3076,0.3039,0.3005,0.2962,0.2933,0.2911,0.2911,0.2891,0.2907,0.2949,0.296,0.2999,0.3025,0.3032,0.3072,0.3076,0.3076,0.3099,0.2937,0.2924,0.3082,0.3082,0.3082,0.3097,0,0.3097,0.3006,0.2998,0.291,0.2861,0.2873,0.2832,0.2818,0.2821,0.2807,0.2854,0.2854,0.2901,0.2917,0.2949,0.3025,0.3038,0.3023,0.3133,0.3135,0.2995,0.2921,0.2737,0.2719,0.3099,0.3099,0.3099,0,0.2995,0.2956,0.2864,0.2818,0.2798,0.2756,0.2723,0.2695,0.27,0.2706,0.2731,0.2774,0.2809,0.2861,0.2955,0.2947,0.3008,0.3062,0.3065,0.2945,0.2976,0.2819,0.2709,0.2614,0.3103,0.3103,0.3102,0,0.2932,0.2855,0.2789,0.2763,0.2714,0.2687,0.2675,0.2666,0.2644,0.2657,0.2648,0.2709,0.2735,0.2832,0.2926,0.2954,0.3025,0.3085,0.2988,0.2978,0.2854,0.2829,0.2661,0.314,0.314,0.314,0.314,0,0.2839,0.2776,0.2757,0.271,0.2645,0.264,0.2582,0.2581,0.2577,0.2544,0.2605,0.259,0.2735,0.2789,0.2895,0.2914,0.3002,0.2947,0.296,0.2813,0.2787,0.2728,0.2708,0.314,0.314,0.314,0.314,0,0.2743,0.2732,0.2654,0.2616,0.2605,0.2561,0.2527,0.2492,0.25,0.2462,0.2464,0.2508,0.2559,0.2672,0.2813,0.2836,0.2789,0.2897,0.2683,0.2666,0.2444,0.2426,0.2219,0.2187,0.2773,0.2769,0.2765,0,0.2658,0.2619,0.2586,0.2556,0.2532,0.2483,0.2449,0.245,0.2419,0.2401,0.2376,0.2401,0.2401,0.2496,0.2536,0.2619,0.2627,0.2486,0.2488,0.2353,0.2349,0.2303,0.2293,0.2303,0.2296,0.2291,0.2286,0,0.2518,0.2534,0.2498,0.2457,0.2418,0.2368,0.233,0.2296,0.2291,0.2249,0.2205,0.2206,0.2224,0.2177,0.2232,0.2288,0.2285,0.2365,0.2305,0.1992,0.1858,0.1859,0.2367,0.2235,0.224,0.2244,0.2247,0.2249,0.2424,0.2394,0.2388,0.2341,0.2305,0.2257,0.2188,0.2155,0.2092,0.1994,0.2043,0.1947,0.1875,0.1897,0.1929,0.1783,0.1917,0.1754,0.1756,0.1733,0.1627,0.1973,0.1803,0.1806,0.1808,0.181,0.1811,0,0.2303,0.2304,0.2266,0.2217,0.2153,0.2169,0.2096,0.201,0.1902,0.1818,0.1745,0.1542,0.1449,0.1419,0.1271,0.1194,0.123,0.1181,0.1111,0.1154,0.1519,0.1421,0.1062,0.1062,0.1062,0.1062,0.1062,0.1062,0.2237,0.2199,0.2201,0.2086,0.2043,0.1914,0.186,0.1746,0.1651,0.1414,0.1236,0.1179,0.1074,0.0847,0.0708,0.0721,0.0727,0.0616,0.075,0.102,0.1076,0.113,0.1032,0.0597,0.0596,0.0332,0.0329,0.0327]},{"header":{"parameterUnit":"m.s-1","parameterCategory":2,"la1":30.2991,"la2":30.254,"lo1":-89.0895,"lo2":-89.0444,"dy":0.0017,"dx":0.0017,"nx":28,"ny":28,"refTime":"2024-10-12T09:00:00:Z","depth":"0","parameterNumber":3,"parameterNumberName":"V-component_of_CURRENTS"},"data":[0,0,0,0,0,0,0,0,0,0,0,0,0,0,0,0,0,0,0,0,0,0,0,0,0,0,0,0,0,0,0,0,0,0,0,0,0,0,0,0,0,0,0,0,0,0,0,0,0,0,0,0,0,0,0,0,0,0,0.0028,0.0029,0,0.0173,0.0174,0.0176,0.0238,0.0238,0.0237,0.0237,0.0388,0.0392,0.0396,0,0,0,0,0,0,0,0,0,0,0,0,0,-0.0146,-0.0143,0.0028,0.0029,0.0031,0.0172,0.0175,0.0177,0.0238,0.0238,0.0237,0.0237,0.0386,0.0391,0.0397,0,0,0,0,0,0,0,0,0,0,0,0,0,-0.0041,-0.0142,0.0027,0.0077,0.0083,0.0172,0.0175,0.0177,0.0238,0.0238,0.0237,0.0237,0.0384,0.0391,0.0397,0.045,0,0,0.0417,0.042,0,0,0,0,0,0,0,0,-0.0047,-0.0035,0.0068,0.0074,0.0081,0.0185,0.0169,0.0268,0.0239,0.0181,0.0237,0.0236,0.032,0.0332,0.0363,0.0458,0.0464,0.0418,0.0422,0.0425,0.0427,0,0,0,0,0,0,0,-0.0055,-0.004,0.0087,0.007,0.0078,0.011,0.0123,0.0188,0.0254,0.0186,0.0191,0.0204,0.0323,0.0356,0.0367,0.0466,0.0418,0.0424,0.0428,0.043,0.0623,0.0624,0,0,0,0,0,0,-0.0078,-0.0047,0.0082,0.0091,0.0012,0.0113,0.0129,0.0154,0.0253,0.0267,0.0205,0.0206,0.0345,0.0359,0.0372,0.0459,0.0425,0.0431,0.0435,0.0622,0.0623,0.0625,0,0,0,0,0,0,-0.0082,-0.0067,0.0076,0.0023,0.0043,0.0116,0.0144,0.0157,0.0188,0.0267,0.0281,0.0222,0.0345,0.0363,0.0442,0.0465,0.0434,0.044,0.0621,0.0622,0.0624,0.0622,0,0,0,0,0,0,-0.0087,-0.0069,-0.0058,0.0022,0.0045,0.0132,0.0145,0.016,0.0197,0.0201,0.0286,0.03,0.0346,0.0432,0.0449,0.0473,0.0445,0.0619,0.0621,0.0623,0.062,0.0623,0.0626,0,0,0,0,0,-0.0093,-0.0079,-0.0058,-0.0042,0.0059,0.0133,0.0149,0.0199,0.0197,0.0222,0.0281,0.0297,0.0457,0.0439,0.0458,0.0485,0.0618,0.0621,0.0623,0.0619,0.0623,0.0626,0,0,0,0,0,0,-0.0155,-0.0069,-0.0044,-0.0006,0.006,0.0142,0.0164,0.0195,0.0262,0.0262,0.0325,0.0345,0.0422,0.0453,0.0431,0.0545,0.0535,0.0542,0.0526,0.053,0.0532,0.0513,0.0451,0,0,0,0,0,-0.0162,-0.0125,-0.0041,-0.0011,0.0018,0.0089,0.0122,0.0162,0.0228,0.0256,0.0318,0.0381,0.0449,0.0486,0.0552,0.062,0.0621,0.0645,0.0647,0.0649,0.0646,0.0665,0.0668,0.0633,0.0633,0.0633,0,0,-0.0179,-0.0128,-0.0107,-0.0021,0.0029,0.0092,0.0108,0.0161,0.0216,0.0263,0.0347,0.0398,0.047,0.055,0.0585,0.0578,0.066,0.0652,0.0654,0.065,0.0668,0.0671,0.0674,0.0635,0.0635,0.0634,0,0,-0.0188,-0.0148,-0.0113,-0.0053,0.0025,0.008,0.0092,0.0182,0.0221,0.0311,0.0353,0.0413,0.0524,0.0578,0.0619,0.0673,0.0675,0.069,0.0692,0.071,0.0712,0.0714,0.0714,0.0716,0.0689,0.0689,0.0689,0,-0.0217,-0.0148,-0.0094,-0.0038,0.0012,0.0073,0.0129,0.0187,0.0293,0.0327,0.0336,0.0485,0.0539,0.063,0.0649,0.0679,0.0679,0.0673,0.0711,0.0713,0.0716,0.0714,0.0717,0.0689,0.0689,0.0689,0.0689,0,-0.0181,-0.0125,-0.0103,-0.0004,0.0053,0.0109,0.0197,0.0251,0.0298,0.0357,0.0447,0.0522,0.0603,0.063,0.0663,0.0713,0.0704,0.0711,0.0696,0.0718,0.0716,0.0719,0.069,0.0689,0.0689,0.0689,0,0,-0.0246,-0.0105,-0.0097,-0.0039,0.0079,0.0131,0.0212,0.0308,0.0353,0.0438,0.05,0.0605,0.0621,0.0665,0.0705,0.0721,0.0737,0.0719,0.072,0.0706,0.076,0.076,0.0762,0.0746,0.0747,0.0747,0.0749,0,-0.0232,-0.0127,-0.0057,0.0043,0.011,0.0191,0.0263,0.0349,0.0418,0.0492,0.0552,0.0628,0.0642,0.0675,0.0697,0.0743,0.0745,0.0735,0.0752,0.0752,0.0739,0.0766,0.0776,0.0779,0.0752,0.0752,0.0752,0,-0.0212,-0.0138,-0.0041,0.0086,0.0117,0.018,0.0293,0.0364,0.0468,0.0515,0.0582,0.0634,0.0701,0.0691,0.0752,0.0744,0.0744,0.0759,0.0759,0.076,0.0757,0.0756,0.0785,0.0791,0.0756,0.0756,0.0755,0,-0.026,-0.0128,-0.0052,-0.0003,0.0145,0.0188,0.0256,0.0364,0.0423,0.052,0.0567,0.0647,0.0697,0.0717,0.0764,0.0754,0.0809,0.0801,0.0791,0.079,0.0804,0.0803,0.0831,0.0808,0.0808,0.0808,0.0808,0,-0.0254,-0.0193,-0.0072,-0.0022,0.0055,0.0157,0.0233,0.0308,0.0409,0.0487,0.0562,0.0638,0.0704,0.0758,0.0768,0.08,0.0811,0.0794,0.0797,0.0803,0.0803,0.0813,0.0829,0.0808,0.0808,0.0808,0.0808,0,-0.0294,-0.0214,-0.0122,0.0009,0.0043,0.0095,0.0217,0.0275,0.0364,0.0466,0.0498,0.0634,0.0717,0.0767,0.0819,0.0814,0.0856,0.083,0.0827,0.083,0.082,0.0836,0.0879,0.0929,0.0818,0.0818,0.0818,0,-0.0289,-0.0246,-0.0126,-0.0081,-0.0019,0.0064,0.0125,0.0236,0.0308,0.0476,0.0529,0.0644,0.0756,0.0832,0.085,0.0864,0.0875,0.0847,0.0831,0.0825,0.0846,0.0855,0.0895,0.0843,0.0844,0.0844,0.0844,0,-0.0281,-0.0253,-0.0184,-0.01,-0.0032,0.0051,0.0149,0.02,0.0345,0.0442,0.0598,0.0699,0.0802,0.0867,0.088,0.0882,0.0884,0.085,0.0857,0.0881,0.0882,0.093,0.0821,0.0846,0.0846,0.0846,0.0846,0.0846,-0.0291,-0.0253,-0.0177,-0.0097,-0.0027,0.0064,0.0138,0.0244,0.0366,0.054,0.0621,0.0767,0.0844,0.0895,0.0898,0.0882,0.0908,0.0866,0.0888,0.0896,0.0948,0.0833,0.0856,0.0856,0.0856,0.0856,0.0856,0,-0.0276,-0.0231,-0.0165,-0.006,0.0014,0.0057,0.0182,0.0264,0.0412,0.0544,0.068,0.0792,0.0869,0.09,0.09,0.0909,0.0933,0.0919,0.0937,0.098,0.0882,0.0886,0.0903,0.0903,0.0903,0.0903,0.0903,0.0903,-0.0258,-0.0201,-0.0159,-0.0031,0.0038,0.0151,0.023,0.0333,0.044,0.0593,0.068,0.0758,0.0828,0.0892,0.0931,0.0943,0.1002,0.0992,0.1039,0.0954,0.0951,0.0947,0.0953,0.0984,0.0984,0.114,0.1141,0.1142]}],[{"header":{"parameterUnit":"m.s-1","parameterCategory":2,"la1":30.2991,"la2":30.254,"lo1":-89.0895,"lo2":-89.0444,"dy":0.0017,"dx":0.0017,"nx":28,"ny":28,"refTime":"2024-10-12T09:00:00:Z","depth":"2","parameterNumber":2,"parameterNumberName":"U-component_of_CURRENTS"},"data":[0,0,0,0,0,0,0,0,0,0,0,0,0,0,0,0,0,0,0,0,0,0,0,0,0,0,0,0,0,0,0,0,0,0,0,0,0,0,0,0,0,0,0,0,0,0,0,0,0,0,0,0,0,0,0,0,0,0,0.1171,0.1171,0,0.1187,0.1187,0.1187,0.1246,0.1248,0.1249,0.125,0.1359,0.136,0.1362,0,0,0,0,0,0,0,0,0,0,0,0,0,0.1197,0.1196,0.1171,0.1171,0.1171,0.1187,0.1187,0.1187,0.1246,0.1248,0.1249,0.1251,0.1358,0.136,0.1362,0,0,0,0,0,0,0,0,0,0,0,0,0,0.1196,0.1195,0.117,0.1203,0.1206,0.1187,0.1187,0.1187,0.1246,0.1248,0.125,0.1252,0.1358,0.136,0.1362,0.1335,0,0,0.1369,0.137,0,0,0,0,0,0,0,0,0.1196,0.1195,0.1198,0.1201,0.1204,0.1217,0.1236,0.1241,0.1245,0.123,0.125,0.1253,0.1319,0.1324,0.1321,0.134,0.1344,0.137,0.1371,0.1372,0.1373,0,0,0,0,0,0,0,0.1196,0.1194,0.1176,0.1198,0.1202,0.1219,0.1221,0.1237,0.1264,0.1231,0.1236,0.1238,0.1321,0.1318,0.1324,0.1346,0.137,0.1372,0.1373,0.1374,0.1489,0.1491,0,0,0,0,0,0,0.1192,0.1194,0.1176,0.1177,0.1206,0.1216,0.1219,0.121,0.1262,0.1271,0.1236,0.1241,0.1313,0.1321,0.1328,0.1388,0.1372,0.1374,0.1376,0.1488,0.1489,0.1491,0,0,0,0,0,0,0.1192,0.1189,0.1175,0.1187,0.1187,0.1214,0.1204,0.121,0.1237,0.1264,0.1276,0.1262,0.1315,0.1325,0.138,0.139,0.1375,0.1377,0.1486,0.1488,0.149,0.1451,0,0,0,0,0,0,0.1192,0.1189,0.1195,0.1186,0.1186,0.1181,0.1202,0.1208,0.1233,0.124,0.1289,0.1299,0.1317,0.1377,0.1382,0.1393,0.1379,0.1483,0.1487,0.149,0.1451,0.1452,0.1454,0,0,0,0,0,0.1193,0.1186,0.1195,0.1194,0.1188,0.1181,0.1183,0.1209,0.1233,0.1242,0.129,0.13,0.1401,0.1379,0.1386,0.1397,0.1482,0.1486,0.1489,0.145,0.1452,0.1454,0,0,0,0,0,0,0.1217,0.1191,0.1201,0.1192,0.1197,0.1192,0.1205,0.1219,0.1258,0.1281,0.1311,0.1324,0.1378,0.14,0.1375,0.1446,0.1446,0.1452,0.1414,0.1417,0.1418,0.1403,0.1381,0,0,0,0,0,0.1218,0.1197,0.1193,0.1189,0.1193,0.1203,0.1209,0.1226,0.1251,0.1271,0.1303,0.1351,0.139,0.1415,0.1451,0.1478,0.1506,0.1498,0.1499,0.15,0.1497,0.1563,0.1569,0.1503,0.1503,0.1503,0,0,0.1223,0.121,0.1199,0.1191,0.1198,0.1195,0.1213,0.1228,0.1234,0.1276,0.1313,0.1357,0.1402,0.1441,0.1467,0.1463,0.1532,0.1504,0.1504,0.1501,0.1567,0.1573,0.1579,0.1506,0.1505,0.1505,0,0,0.1214,0.1217,0.1197,0.1197,0.1207,0.1208,0.1218,0.123,0.1252,0.1285,0.1325,0.1377,0.1428,0.1457,0.148,0.1512,0.154,0.1535,0.1523,0.1587,0.1592,0.1597,0.1626,0.1634,0.1532,0.1532,0.1532,0,0.1239,0.1202,0.1197,0.1187,0.1189,0.1215,0.1211,0.1224,0.1257,0.1276,0.1304,0.1397,0.1432,0.1475,0.149,0.1511,0.1548,0.1503,0.1585,0.1591,0.1597,0.1626,0.1635,0.1531,0.1531,0.1531,0.1531,0,0.1198,0.1194,0.1189,0.1174,0.1177,0.1181,0.1193,0.1216,0.1251,0.1268,0.1334,0.1389,0.1445,0.1466,0.1485,0.1543,0.1555,0.1578,0.157,0.16,0.1629,0.1639,0.1529,0.1529,0.153,0.153,0,0,0.1201,0.1168,0.1171,0.1167,0.1175,0.117,0.1185,0.1201,0.1216,0.1273,0.1305,0.1375,0.1418,0.1448,0.1489,0.1538,0.16,0.1574,0.1578,0.1582,0.1729,0.1495,0.1484,0.1646,0.1648,0.165,0.1726,0,0.1187,0.1161,0.1144,0.1135,0.113,0.115,0.1151,0.1174,0.1211,0.1249,0.1321,0.1377,0.1407,0.145,0.1502,0.1584,0.1629,0.1576,0.1717,0.172,0.1492,0.1488,0.1405,0.1445,0.1736,0.1738,0.1739,0,0.1165,0.114,0.1135,0.1113,0.1113,0.1124,0.1141,0.114,0.1192,0.1227,0.1297,0.1355,0.1437,0.147,0.1607,0.1578,0.165,0.1707,0.1712,0.1512,0.1504,0.1469,0.1453,0.1756,0.1755,0.1754,0.1752,0,0.1176,0.1142,0.114,0.1136,0.1116,0.1135,0.1132,0.116,0.1159,0.1236,0.1266,0.1363,0.1435,0.154,0.1646,0.1647,0.1792,0.1809,0.1663,0.1648,0.1608,0.1583,0.1911,0.191,0.191,0.191,0.191,0,0.1172,0.1173,0.1155,0.1159,0.1145,0.1139,0.1149,0.1158,0.1183,0.1201,0.1271,0.1313,0.1466,0.1557,0.165,0.166,0.1801,0.1642,0.1645,0.1587,0.156,0.1862,0.1855,0.1913,0.1912,0.1912,0.1911,0,0.1199,0.1196,0.1186,0.1167,0.1167,0.1164,0.1151,0.1141,0.1175,0.1211,0.1243,0.1308,0.1408,0.1523,0.1689,0.1632,0.1694,0.1678,0.1561,0.1542,0.1507,0.1499,0.1491,0.1483,0.1476,0.1471,0.1466,0,0.1219,0.1217,0.1199,0.1186,0.1193,0.1183,0.1167,0.1162,0.115,0.1205,0.1215,0.1308,0.1333,0.1405,0.1408,0.1457,0.16,0.1329,0.127,0.1456,0.1463,0.1464,0.1464,0.124,0.1234,0.1229,0.1225,0,0.1226,0.1237,0.1208,0.1186,0.1182,0.1145,0.1136,0.1128,0.1135,0.1161,0.1195,0.1213,0.1224,0.1167,0.1136,0.1162,0.1288,0.121,0.1517,0.1292,0.1207,0.1216,0.1228,0.118,0.1185,0.1188,0.1191,0.1192,0.1232,0.1213,0.1188,0.116,0.1148,0.1132,0.1122,0.1093,0.1085,0.1093,0.1128,0.1094,0.1019,0.0881,0.0886,0.0887,0.0946,0.091,0.0934,0.0961,0.0851,0.0751,0.0621,0.0622,0.0623,0.0624,0.0624,0,0.1242,0.1212,0.1157,0.1127,0.1116,0.1158,0.1102,0.1052,0.1053,0.1013,0.1011,0.0828,0.0717,0.0731,0.0631,0.0523,0.0631,0.0527,0.0706,0.0744,0.0781,0.0671,0.0389,0.0389,0.0389,0.0389,0,0,0.1226,0.1178,0.1132,0.1105,0.1148,0.1117,0.1126,0.1031,0.0935,0.0828,0.0771,0.0708,0.0654,0.0518,0.0463,0.0437,0.0617,0.0425,0.0605,0.0856,0.0894,0.0971,0.0837,0,0,0,0,0]},{"header":{"parameterUnit":"m.s-1","parameterCategory":2,"la1":30.2991,"la2":30.254,"lo1":-89.0895,"lo2":-89.0444,"dy":0.0017,"dx":0.0017,"nx":28,"ny":28,"refTime":"2024-10-12T09:00:00:Z","depth":"2","parameterNumber":3,"parameterNumberName":"V-component_of_CURRENTS"},"data":[0,0,0,0,0,0,0,0,0,0,0,0,0,0,0,0,0,0,0,0,0,0,0,0,0,0,0,0,0,0,0,0,0,0,0,0,0,0,0,0,0,0,0,0,0,0,0,0,0,0,0,0,0,0,0,0,0,0,-0.0125,-0.0125,0,-0.0071,-0.0071,-0.007,-0.0084,-0.0085,-0.0086,-0.0087,-0.0078,-0.0076,-0.0075,0,0,0,0,0,0,0,0,0,0,0,0,0,-0.0214,-0.0212,-0.0125,-0.0124,-0.0124,-0.0071,-0.0071,-0.007,-0.0084,-0.0085,-0.0087,-0.0088,-0.0078,-0.0077,-0.0075,0,0,0,0,0,0,0,0,0,0,0,0,0,-0.0169,-0.0212,-0.0125,-0.0124,-0.0124,-0.0072,-0.0071,-0.007,-0.0084,-0.0085,-0.0087,-0.0088,-0.0079,-0.0077,-0.0075,-0.0033,0,0,-0.0069,-0.0069,0,0,0,0,0,0,0,0,-0.0172,-0.0166,-0.0125,-0.0124,-0.0123,-0.0086,-0.0098,-0.0059,-0.0083,-0.0099,-0.0087,-0.0089,-0.0083,-0.0081,-0.0067,-0.0032,-0.0032,-0.0069,-0.0068,-0.0067,-0.0067,0,0,0,0,0,0,0,-0.0175,-0.0168,-0.0104,-0.0124,-0.0123,-0.0117,-0.0113,-0.0091,-0.0084,-0.0098,-0.0099,-0.0092,-0.0083,-0.0069,-0.0067,-0.0032,-0.0069,-0.0068,-0.0067,-0.0066,0.0013,0.0014,0,0,0,0,0,0,-0.018,-0.0171,-0.0106,-0.0103,-0.0152,-0.0114,-0.011,-0.0097,-0.0084,-0.0083,-0.009,-0.0093,-0.0071,-0.0069,-0.0067,-0.0027,-0.0067,-0.0066,-0.0065,0.0012,0.0013,0.0014,0,0,0,0,0,0,-0.0182,-0.0174,-0.0108,-0.0136,-0.0127,-0.0111,-0.0096,-0.0095,-0.0101,-0.0077,-0.0078,-0.0101,-0.0072,-0.007,-0.0047,-0.0027,-0.0065,-0.0063,0.0011,0.0012,0.0014,0.006,0,0,0,0,0,0,-0.0185,-0.0175,-0.0179,-0.0136,-0.0126,-0.0085,-0.0095,-0.0092,-0.0092,-0.0095,-0.0085,-0.0085,-0.0073,-0.005,-0.0045,-0.0025,-0.0062,0.0009,0.0011,0.0013,0.0057,0.0063,0.0068,0,0,0,0,0,-0.0188,-0.0186,-0.018,-0.0172,-0.0127,-0.0085,-0.0079,-0.0074,-0.0092,-0.0087,-0.0075,-0.0087,-0.0035,-0.0047,-0.0042,-0.0021,0.0009,0.0011,0.0013,0.0055,0.0062,0.0067,0,0,0,0,0,0,-0.024,-0.0186,-0.0178,-0.0165,-0.0131,-0.0088,-0.009,-0.0082,-0.0068,-0.0081,-0.0067,-0.0064,-0.0037,-0.0036,-0.0049,0.0006,-0.0018,-0.0014,0.0012,0.0019,0.0024,0.0022,-0.006,0,0,0,0,0,-0.0247,-0.0228,-0.0178,-0.017,-0.0156,-0.0126,-0.0115,-0.0104,-0.008,-0.0078,-0.0062,-0.0047,-0.0017,-0.0008,0.0014,0.0047,0.0043,0.006,0.0066,0.007,0.0072,0.0091,0.0098,0.0022,0.0022,0.0021,0,0,-0.0267,-0.0236,-0.0228,-0.018,-0.0159,-0.0119,-0.0124,-0.0108,-0.0073,-0.0077,-0.0043,-0.003,-0.0005,0.0036,0.0047,0.0036,0.0091,0.0073,0.0077,0.0076,0.0094,0.0101,0.0108,0.0023,0.0023,0.0023,0,0,-0.0282,-0.0269,-0.025,-0.0214,-0.0175,-0.0141,-0.0139,-0.0094,-0.008,-0.0035,-0.0027,-0.0001,0.0037,0.007,0.009,0.0135,0.0117,0.0132,0.0161,0.018,0.0186,0.0192,0.0199,0.0204,0.0136,0.0136,0.0136,0,-0.0316,-0.0271,-0.0242,-0.0206,-0.0174,-0.0149,-0.0112,-0.008,-0.0033,-0.0008,-0.0026,0.0049,0.006,0.013,0.0144,0.0149,0.0146,0.0137,0.0187,0.0192,0.0197,0.0203,0.0208,0.0138,0.0138,0.0138,0.0138,0,-0.0292,-0.0263,-0.0253,-0.0187,-0.015,-0.012,-0.0059,-0.003,-0.0013,0.0027,0.0082,0.0108,0.0149,0.0162,0.0168,0.0218,0.02,0.0191,0.017,0.0208,0.0211,0.0216,0.0142,0.0141,0.014,0.014,0,0,-0.0346,-0.0254,-0.0253,-0.0212,-0.0136,-0.01,-0.0039,0.0036,0.0075,0.0112,0.017,0.0219,0.0217,0.0238,0.0248,0.0267,0.0299,0.024,0.024,0.0246,0.0329,0.0344,0.0351,0.0293,0.0294,0.0295,0.0318,0,-0.0339,-0.0273,-0.0219,-0.0151,-0.0106,-0.0048,0.0013,0.0079,0.0128,0.019,0.0224,0.027,0.0253,0.0264,0.0286,0.0301,0.0314,0.0293,0.0292,0.0292,0.0301,0.0358,0.0292,0.0309,0.0323,0.0323,0.0324,0,-0.0324,-0.0275,-0.0215,-0.0113,-0.009,-0.0049,0.0051,0.0111,0.0205,0.0238,0.0289,0.0315,0.0365,0.0328,0.0369,0.0353,0.0339,0.0341,0.0342,0.0343,0.0318,0.0274,0.0318,0.0332,0.0332,0.0331,0.0331,0,-0.0359,-0.0268,-0.0223,-0.0188,-0.0075,-0.0044,0.0011,0.011,0.0168,0.0255,0.0299,0.036,0.0388,0.0392,0.0401,0.0378,0.0438,0.0407,0.0409,0.0409,0.0347,0.034,0.0422,0.0422,0.0422,0.0421,0.0421,0,-0.0351,-0.0315,-0.0245,-0.0215,-0.0157,-0.0075,-0.0008,0.006,0.0158,0.0243,0.03,0.0379,0.0401,0.0447,0.0429,0.0451,0.0458,0.0428,0.0426,0.0362,0.0357,0.0367,0.0361,0.0422,0.0422,0.0422,0.0422,0,-0.0383,-0.034,-0.0283,-0.0194,-0.0173,-0.0137,-0.0036,0.0027,0.0112,0.0224,0.025,0.0388,0.046,0.0483,0.0511,0.0494,0.0504,0.0499,0.0423,0.0412,0.0448,0.0443,0.0504,0.0505,0.0506,0.0506,0.0507,0,-0.0388,-0.0364,-0.0298,-0.0272,-0.0239,-0.018,-0.0127,-0.0022,0.0057,0.0246,0.0309,0.0421,0.0534,0.0596,0.0559,0.0542,0.0546,0.0479,0.0431,0.047,0.0461,0.0455,0.045,0.0359,0.0358,0.0357,0.0357,0,-0.0384,-0.038,-0.0334,-0.0296,-0.0256,-0.0183,-0.0101,-0.0042,0.0113,0.0228,0.0419,0.0525,0.0588,0.0587,0.056,0.0536,0.048,0.0469,0.054,0.0359,0.0339,0.0328,0.0326,0.0352,0.0353,0.0353,0.0353,0.0353,-0.0401,-0.0378,-0.0338,-0.0295,-0.0247,-0.0164,-0.0083,0.0027,0.0173,0.037,0.0458,0.0595,0.0563,0.0528,0.0508,0.0462,0.0463,0.042,0.0419,0.042,0.0409,0.0393,0.0414,0.0415,0.0415,0.0416,0.0417,0,-0.0393,-0.0364,-0.0326,-0.0258,-0.0193,-0.0165,-0.0031,0.0071,0.0258,0.0374,0.0525,0.0503,0.0508,0.049,0.039,0.0361,0.0336,0.0374,0.0318,0.0321,0.0325,0.0308,0.0287,0.0287,0.0287,0.0288,0,0,-0.0378,-0.0341,-0.031,-0.0208,-0.0156,-0.0031,0.0062,0.0185,0.0287,0.0423,0.0479,0.0527,0.0496,0.04,0.0347,0.0316,0.0337,0.0319,0.0412,0.0352,0.0357,0.0328,0.0305,0,0,0,0,0]}],[{"header":{"parameterUnit":"m.s-1","parameterCategory":2,"la1":30.2991,"la2":30.254,"lo1":-89.0895,"lo2":-89.0444,"dy":0.0017,"dx":0.0017,"nx":28,"ny":28,"refTime":"2024-10-12T09:00:00:Z","depth":"4","parameterNumber":2,"parameterNumberName":"U-component_of_CURRENTS"},"data":[0,0,0,0,0,0,0,0,0,0,0,0,0,0,0,0,0,0,0,0,0,0,0,0,0,0,0,0,0,0,0,0,0,0,0,0,0,0,0,0,0,0,0,0,0,0,0,0,0,0,0,0,0,0,0,0,0,0,-0.0545,-0.0545,0,-0.0554,-0.0555,-0.0555,-0.0569,-0.0569,-0.0569,-0.0569,-0.0658,-0.066,-0.0662,0,0,0,0,0,0,0,0,0,0,0,0,0,-0.0514,-0.0515,-0.0545,-0.0545,-0.0545,-0.0554,-0.0555,-0.0555,-0.0569,-0.0569,-0.0569,-0.0569,-0.0657,-0.0659,-0.0662,0,0,0,0,0,0,0,0,0,0,0,0,0,-0.0526,-0.0515,-0.0545,-0.0554,-0.0554,-0.0554,-0.0555,-0.0555,-0.0568,-0.0569,-0.0569,-0.057,-0.0656,-0.0659,-0.0662,-0.0674,0,0,-0.0672,-0.0673,0,0,0,0,0,0,0,0,-0.0525,-0.0527,-0.0552,-0.0553,-0.0554,-0.0561,-0.0576,-0.0598,-0.0568,-0.0563,-0.0569,-0.057,-0.0633,-0.0638,-0.0637,-0.0678,-0.0682,-0.0672,-0.0674,-0.0676,-0.0676,0,0,0,0,0,0,0,-0.0524,-0.0526,-0.0548,-0.0552,-0.0553,-0.0548,-0.0551,-0.058,-0.0597,-0.0563,-0.0564,-0.0566,-0.0634,-0.0634,-0.0639,-0.0683,-0.0672,-0.0675,-0.0677,-0.0678,-0.0735,-0.0735,0,0,0,0,0,0,-0.0525,-0.0526,-0.0548,-0.0549,-0.054,-0.0549,-0.0551,-0.0558,-0.0595,-0.06,-0.0565,-0.0566,-0.0628,-0.0636,-0.0643,-0.0625,-0.0675,-0.0678,-0.068,-0.0735,-0.0735,-0.0734,0,0,0,0,0,0,-0.0524,-0.0527,-0.0548,-0.0537,-0.054,-0.0549,-0.0556,-0.0558,-0.0572,-0.0595,-0.0602,-0.0579,-0.0629,-0.0638,-0.0673,-0.063,-0.068,-0.0683,-0.0736,-0.0735,-0.0735,-0.0611,0,0,0,0,0,0,-0.0523,-0.0527,-0.0536,-0.0537,-0.054,-0.0554,-0.0556,-0.0558,-0.0571,-0.0573,-0.0609,-0.0617,-0.063,-0.0668,-0.0676,-0.0635,-0.0685,-0.0736,-0.0736,-0.0735,-0.0616,-0.0606,-0.0598,0,0,0,0,0,-0.0522,-0.0533,-0.0537,-0.0539,-0.0552,-0.0554,-0.0555,-0.0562,-0.0572,-0.0577,-0.0599,-0.0616,-0.0669,-0.0671,-0.068,-0.0639,-0.0737,-0.0736,-0.0735,-0.0619,-0.0608,-0.0599,0,0,0,0,0,0,-0.0525,-0.0535,-0.0539,-0.0554,-0.0556,-0.0557,-0.0567,-0.057,-0.059,-0.0604,-0.0622,-0.0631,-0.064,-0.0673,-0.0674,-0.0657,-0.0702,-0.0703,-0.0611,-0.0601,-0.0592,-0.0566,-0.0688,0,0,0,0,0,-0.0529,-0.0543,-0.0545,-0.0559,-0.0563,-0.0568,-0.0573,-0.0579,-0.0594,-0.0603,-0.0613,-0.0635,-0.0641,-0.065,-0.0672,-0.0672,-0.074,-0.0652,-0.0643,-0.0636,-0.0623,-0.0731,-0.0731,-0.0732,-0.0732,-0.0732,0,0,-0.0533,-0.0543,-0.055,-0.0561,-0.0568,-0.0568,-0.0573,-0.0589,-0.0573,-0.0612,-0.0602,-0.0616,-0.0641,-0.0627,-0.0633,-0.0648,-0.0666,-0.0635,-0.0627,-0.0619,-0.073,-0.073,-0.073,-0.0731,-0.0731,-0.0731,0,0,-0.0544,-0.0559,-0.0571,-0.0576,-0.059,-0.0585,-0.0592,-0.0592,-0.0577,-0.056,-0.0584,-0.0591,-0.0582,-0.0596,-0.0598,-0.057,-0.0625,-0.0555,-0.0477,-0.0582,-0.0582,-0.0584,-0.0645,-0.0654,-0.0541,-0.0541,-0.0541,0,-0.0546,-0.0563,-0.0574,-0.0584,-0.0574,-0.0593,-0.0584,-0.0577,-0.0579,-0.055,-0.0545,-0.0538,-0.0564,-0.0557,-0.0512,-0.0548,-0.0596,-0.0505,-0.057,-0.0573,-0.0577,-0.064,-0.065,-0.0535,-0.0535,-0.0536,-0.0537,0,-0.0558,-0.0575,-0.0585,-0.0594,-0.058,-0.0589,-0.0566,-0.0547,-0.0513,-0.0489,-0.0457,-0.0483,-0.0463,-0.0467,-0.0456,-0.0474,-0.0494,-0.0553,-0.0591,-0.0569,-0.0637,-0.065,-0.0526,-0.0528,-0.053,-0.0532,0,0,-0.0548,-0.0583,-0.0589,-0.0578,-0.0584,-0.0564,-0.0529,-0.0481,-0.0446,-0.0422,-0.0378,-0.035,-0.0342,-0.0347,-0.0367,-0.0432,-0.0476,-0.0461,-0.0469,-0.051,-0.0663,-0.0512,-0.0513,-0.0536,-0.0538,-0.054,-0.0691,0,-0.0551,-0.0571,-0.057,-0.0553,-0.0549,-0.0521,-0.0467,-0.0425,-0.0383,-0.0354,-0.036,-0.0333,-0.0306,-0.0282,-0.0334,-0.0467,-0.0507,-0.0427,-0.0688,-0.0695,-0.0555,-0.0522,-0.0547,-0.0701,-0.0704,-0.0707,-0.0708,0,-0.055,-0.0565,-0.0554,-0.0505,-0.0492,-0.0446,-0.0348,-0.0308,-0.0275,-0.024,-0.0217,-0.0238,-0.0277,-0.0287,-0.0456,-0.0396,-0.048,-0.0589,-0.06,-0.0509,-0.0567,-0.0738,-0.0734,-0.0732,-0.073,-0.0728,-0.0726,0,-0.0526,-0.0531,-0.0513,-0.0508,-0.0466,-0.0384,-0.0315,-0.0247,-0.022,-0.0171,-0.0191,-0.0211,-0.0273,-0.0376,-0.0522,-0.0484,-0.0767,-0.0776,-0.0722,-0.0714,-0.0865,-0.0863,-0.0895,-0.0895,-0.0895,-0.0894,-0.0894,0,-0.0512,-0.0504,-0.0484,-0.0476,-0.0388,-0.0327,-0.0225,-0.0159,-0.0133,-0.0149,-0.0122,-0.0181,-0.0302,-0.0463,-0.055,-0.0666,-0.079,-0.0686,-0.0737,-0.0806,-0.0795,-0.0874,-0.0869,-0.09,-0.0899,-0.0897,-0.0896,0,-0.0499,-0.0506,-0.0495,-0.0432,-0.0382,-0.03,-0.0183,-0.0152,-0.0101,-0.0146,-0.014,-0.0213,-0.0321,-0.0469,-0.0694,-0.0718,-0.0854,-0.0872,-0.092,-0.0978,-0.071,-0.0698,-0.0773,-0.0769,-0.0765,-0.0762,-0.076,0,-0.0492,-0.0492,-0.0472,-0.0443,-0.0396,-0.0277,-0.0218,-0.0124,-0.014,-0.018,-0.0255,-0.0319,-0.0362,-0.0558,-0.0671,-0.0792,-0.0796,-0.0876,-0.0743,-0.0651,-0.0696,-0.0689,-0.0682,-0.0754,-0.0753,-0.0752,-0.0751,0,-0.0487,-0.0503,-0.0515,-0.0471,-0.0397,-0.0345,-0.026,-0.0255,-0.0216,-0.0243,-0.0282,-0.0292,-0.0411,-0.0475,-0.0575,-0.068,-0.0822,-0.0838,-0.0844,-0.0718,-0.063,-0.0676,-0.0673,-0.0739,-0.0741,-0.0742,-0.0742,0,-0.0495,-0.052,-0.0546,-0.048,-0.0438,-0.039,-0.0328,-0.0306,-0.0277,-0.0306,-0.0335,-0.0371,-0.0417,-0.0423,-0.0551,-0.0577,-0.0527,-0.055,-0.057,-0.0585,-0.0445,-0.03,-0.0334,0,0,0,0,0,-0.0489,-0.052,-0.0523,-0.0471,-0.0451,-0.0402,-0.0378,-0.0347,-0.0334,-0.034,-0.0301,-0.0356,-0.0355,-0.0388,-0.0368,-0.0476,-0.0571,-0.0457,-0.0618,-0.067,-0.0684,-0.0533,0,0,0,0,0,0,-0.0486,-0.0527,-0.0548,-0.0486,-0.0435,-0.0401,-0.0371,-0.0368,-0.0349,-0.0335,-0.0327,-0.033,-0.0342,-0.0342,-0.0355,-0.0369,-0.0463,-0.0473,-0.0472,-0.0662,-0.0675,-0.0686,-0.0535,0,0,0,0,0]},{"header":{"parameterUnit":"m.s-1","parameterCategory":2,"la1":30.2991,"la2":30.254,"lo1":-89.0895,"lo2":-89.0444,"dy":0.0017,"dx":0.0017,"nx":28,"ny":28,"refTime":"2024-10-12T09:00:00:Z","depth":"4","parameterNumber":3,"parameterNumberName":"V-component_of_CURRENTS"},"data":[0,0,0,0,0,0,0,0,0,0,0,0,0,0,0,0,0,0,0,0,0,0,0,0,0,0,0,0,0,0,0,0,0,0,0,0,0,0,0,0,0,0,0,0,0,0,0,0,0,0,0,0,0,0,0,0,0,0,0.0339,0.0339,0,0.0351,0.0352,0.0352,0.038,0.0381,0.0381,0.0382,0.0439,0.044,0.0441,0,0,0,0,0,0,0,0,0,0,0,0,0,0.0334,0.0334,0.0339,0.0339,0.0339,0.0351,0.0352,0.0352,0.038,0.0381,0.0381,0.0382,0.0439,0.044,0.0441,0,0,0,0,0,0,0,0,0,0,0,0,0,0.0341,0.0334,0.0339,0.0354,0.0355,0.0351,0.0352,0.0352,0.038,0.0381,0.0382,0.0382,0.0439,0.044,0.0442,0.0436,0,0,0.0446,0.0447,0,0,0,0,0,0,0,0,0.0341,0.0341,0.0352,0.0353,0.0354,0.0364,0.0371,0.0382,0.038,0.0372,0.0382,0.0383,0.0417,0.0421,0.0422,0.0439,0.0441,0.0447,0.0448,0.0448,0.0449,0,0,0,0,0,0,0,0.034,0.0341,0.0345,0.0352,0.0353,0.0358,0.036,0.0373,0.0391,0.0372,0.0374,0.0374,0.0419,0.042,0.0424,0.0442,0.0447,0.0448,0.0449,0.045,0.0436,0.0435,0,0,0,0,0,0,0.0336,0.034,0.0344,0.0345,0.0348,0.0358,0.036,0.0361,0.039,0.0395,0.0373,0.0375,0.0417,0.0422,0.0426,0.042,0.0448,0.045,0.0451,0.0437,0.0436,0.0434,0,0,0,0,0,0,0.0336,0.0336,0.0344,0.0342,0.0343,0.0357,0.0358,0.0361,0.038,0.0391,0.0396,0.0391,0.0418,0.0424,0.0449,0.0423,0.045,0.0452,0.0439,0.0437,0.0435,0.041,0,0,0,0,0,0,0.0336,0.0336,0.0344,0.0342,0.0343,0.0345,0.0357,0.0361,0.0377,0.038,0.0407,0.0412,0.0419,0.0447,0.0451,0.0426,0.0453,0.0441,0.0438,0.0436,0.0413,0.0408,0.0403,0,0,0,0,0,0.0336,0.0336,0.0345,0.0345,0.0351,0.0345,0.0346,0.0359,0.0377,0.038,0.0404,0.0412,0.0433,0.0449,0.0453,0.0427,0.0442,0.0439,0.0436,0.0415,0.0409,0.0404,0,0,0,0,0,0,0.0339,0.0339,0.0348,0.035,0.0351,0.0349,0.0357,0.0367,0.0388,0.0405,0.0417,0.0423,0.0425,0.0433,0.045,0.0412,0.043,0.0428,0.0412,0.0406,0.0402,0.0403,0.0454,0,0,0,0,0,0.0342,0.0346,0.0344,0.0349,0.035,0.0359,0.0363,0.0375,0.0387,0.0398,0.0428,0.0436,0.0412,0.042,0.0419,0.0418,0.0428,0.0395,0.0391,0.0387,0.0389,0.036,0.0354,0.0425,0.0425,0.0425,0,0,0.0344,0.0347,0.0349,0.035,0.0356,0.0363,0.0364,0.0377,0.0382,0.0402,0.0442,0.0434,0.0408,0.0396,0.0396,0.0406,0.0379,0.0383,0.038,0.0384,0.0357,0.035,0.0344,0.0423,0.0423,0.0424,0,0,0.0342,0.0354,0.0355,0.0358,0.0369,0.0378,0.0385,0.0406,0.0412,0.0436,0.0429,0.0413,0.0427,0.0387,0.0362,0.0333,0.0354,0.0326,0.0309,0.0281,0.0275,0.027,0.0309,0.0307,0.0324,0.0324,0.0324,0,0.0342,0.036,0.0354,0.0357,0.0369,0.0387,0.0398,0.0395,0.0429,0.042,0.0451,0.0411,0.0409,0.0329,0.0318,0.0321,0.0337,0.0334,0.0276,0.0271,0.0267,0.0307,0.0305,0.0323,0.0323,0.0323,0.0323,0,0.0346,0.0365,0.0368,0.0385,0.0385,0.0408,0.0401,0.0417,0.0441,0.0433,0.0395,0.0381,0.0354,0.0328,0.032,0.0258,0.0294,0.0275,0.0295,0.0258,0.0303,0.0302,0.032,0.0321,0.0321,0.0322,0,0,0.0335,0.0367,0.0374,0.0393,0.0415,0.0416,0.0412,0.0401,0.0384,0.0399,0.0355,0.0309,0.0307,0.0278,0.0249,0.0218,0.0213,0.0241,0.0241,0.0289,0.0207,0.0163,0.0159,0.0186,0.0185,0.0184,0.0265,0,0.0353,0.0381,0.0388,0.0423,0.044,0.0443,0.0434,0.0415,0.0395,0.0362,0.0298,0.0269,0.0279,0.0266,0.023,0.0193,0.0205,0.0197,0.0227,0.0229,0.02,0.0152,0.018,0.0264,0.0264,0.0264,0.0264,0,0.0357,0.0386,0.0436,0.045,0.0455,0.0495,0.0477,0.0465,0.0387,0.0359,0.0298,0.0252,0.0189,0.0213,0.0169,0.0168,0.0209,0.0198,0.02,0.0164,0.018,0.0299,0.0263,0.0263,0.0263,0.0263,0.0263,0,0.0357,0.0406,0.0466,0.0481,0.0506,0.0538,0.0557,0.0498,0.0449,0.0381,0.0316,0.0243,0.0202,0.0199,0.0195,0.019,0.0161,0.015,0.0164,0.0166,0.0199,0.0203,0.0166,0.0166,0.0166,0.0166,0.0166,0,0.0366,0.0403,0.0506,0.0531,0.0602,0.0599,0.0617,0.0592,0.0509,0.0396,0.0351,0.0229,0.0195,0.0151,0.0183,0.0164,0.0172,0.0157,0.016,0.0192,0.0194,0.0201,0.0204,0.0169,0.0168,0.0168,0.0167,0,0.0353,0.0417,0.0485,0.0571,0.0612,0.0675,0.0685,0.0632,0.0585,0.0425,0.04,0.0237,0.0155,0.0148,0.013,0.0141,0.0144,0.017,0.025,0.0258,0.0183,0.0184,0.0158,0.0157,0.0156,0.0155,0.0154,0,0.0345,0.0387,0.0527,0.0585,0.0661,0.0744,0.074,0.0703,0.0578,0.0389,0.0251,0.0166,0.0059,0.0035,0.0036,0.0112,0.0128,0.0184,0.0132,0.0165,0.0172,0.0175,0.0177,0.0152,0.0152,0.0151,0.0151,0,0.0318,0.0399,0.0465,0.0594,0.0666,0.0674,0.0648,0.0559,0.0411,0.0363,0.0134,0.0084,-0.0022,-0.0037,0.0052,0.0093,0.0145,0.0172,0.0174,0.0125,0.0158,0.0166,0.0169,0.0147,0.0147,0.0148,0.0148,0,0.0306,0.0362,0.0462,0.0573,0.064,0.0573,0.0574,0.0425,0.0336,0.01,0.0034,-0.0042,-0.0077,-0.0049,-0.0,0.0053,0.0043,0.0085,0.0091,0.0096,0.0032,0.0062,0.0014,0,0,0,0,0,0.029,0.0323,0.0403,0.0479,0.0527,0.0564,0.0456,0.0402,0.025,0.0088,0.0063,-0.0031,-0.0039,-0.0058,-0.0016,-0.0043,0.0052,0.0007,0.0106,0.0124,0.0129,0.0055,0,0,0,0,0,0,0.0267,0.034,0.0377,0.0379,0.0415,0.0403,0.0355,0.0249,0.0138,0.003,0.0033,0.0013,0.002,-0.0029,0.0006,0.0007,0.0079,0.0005,0.0006,0.0121,0.0126,0.0129,0.0055,0,0,0,0,0]}]]